sat.trackr.live / text

‹ back to catalog

STARLINK-3087

NORAD 49175 · 2021-082AX

PAYLOAD ACTIVE UNKNOWN

§ Identity

Operator
Country
US
Launch date
2021-09-14
Launch site
AFWTR
Launch vehicle
Mass (kg)
RCS (m²)

Purposes: comms

External: N2YO · Heavens-Above · Gunter

§ Orbital elements

Epoch: 2026-09-20T02:47:16.510848Z

Period
96.16 min
Inclination
69.9998°
Eccentricity
0.0002482
Mean motion
14.97527920 rev/d
Perigee alt
572.8 km
Apogee alt
576.3 km
Semi-major
6,952.7 km
B*
-2.7900e-5
RAAN
145.7779°
Arg perigee
256.1236°
Mean anomaly
103.9647°
Rev number
27,555

§ Raw data

STARLINK-30871 49175U 21082AX  26263.11616332 -.00000418  00000+0 -27900-4 0  99972 49175  69.9998 145.7779 0002482 256.1236 103.9647 14.97527920275559

JSON: /api/v1/satellites/49175 · /tle

For live sub-satellite position, see the globe view (requires WebGL).

§ Visibility from observer

Set your observer location to see the next 7 days of passes ≥ 10°. The values pass through the URL so the page stays shareable.

No JS? Fill the form by hand. The geolocation button needs JavaScript.